Le nostre stazioni meteo in Italia

Pubblicità
Il mio iltempo24.it
Monte Terminillo, Italia (16219): Temperatura & dewpoint: 10.02.2019 07:00:00 - 16.02.2019 07:00:00 (CET)Monte Terminillo, Italia (16219): velocità del vento & gusts: 10.02.2019 07:00:00 - 16.02.2019 07:00:00 (CET)Monte Terminillo, Italia (16219): direzione del vento: 10.02.2019 07:00:00 - 16.02.2019 07:00:00 (CET)Monte Terminillo, Italia (16219): ore di luce: 10.02.2019 07:00:00 - 16.02.2019 07:00:00 (CET)
Data & Tempo tt [°C] td [°C] ff [km/h] ff [kn] fx [km/h] fx [kn] dd sd [min]
16.02.2019 07:00:00 0,2 -23,0 24 13 - - E 0
16.02.2019 06:00:00 2,0 -27,6 13 7 - - E 0
16.02.2019 05:00:00 1,7 -26,0 28 15 - - E 0
16.02.2019 04:00:00 0,5 -23,8 39 21 - - E 0
16.02.2019 03:00:00 0,7 -25,7 37 20 - - E 0
16.02.2019 02:00:00 -0,5 -20,9 29 16 - - E 0
16.02.2019 01:00:00 0,3 -20,5 34 18 - - E 0
16.02.2019 00:00:00 0,4 -17,9 41 22 - - N 0
15.02.2019 23:00:00 -1,7 -11,8 44 24 - - E 0
15.02.2019 22:00:00 -2,7 -9,4 39 21 - - E 0
15.02.2019 21:00:00 -2,6 -9,5 46 25 - - E 0
15.02.2019 20:00:00 -3,2 -6,1 41 22 - - N 0
15.02.2019 19:00:00 -2,3 -6,3 78 42 - - E 0
15.02.2019 18:00:00 -2,0 -6,0 65 35 - - E 30
15.02.2019 17:00:00 -1,1 -6,4 63 34 87 47 E 60
15.02.2019 16:00:00 -0,3 -6,7 63 34 - - E 54
15.02.2019 15:00:00 0,2 -7,6 59 32 81 44 E 60
15.02.2019 14:00:00 0,8 -6,9 67 36 - - E 60
15.02.2019 13:00:00 2,4 -8,1 41 22 - - E 60
15.02.2019 12:00:00 1,9 -7,5 31 17 - - E 60
15.02.2019 11:00:00 1,9 -9,8 61 33 - - E 60
15.02.2019 10:00:00 2,6 -13,3 55 30 - - E 36
15.02.2019 09:00:00 2,5 -12,4 55 30 - - E 60
15.02.2019 08:00:00 1,4 -10,3 57 31 - - E 18
15.02.2019 07:00:00 1,1 -9,5 41 22 - - E 0
15.02.2019 06:00:00 1,9 -21,7 48 26 - - E 0
15.02.2019 05:00:00 1,8 -20,6 41 22 63 34 E 0
15.02.2019 04:00:00 2,4 -19,7 35 19 - - E 0
15.02.2019 03:00:00 1,8 -12,6 24 13 - - N 0
15.02.2019 02:00:00 0,7 -9,3 26 14 - - ESE 0
15.02.2019 01:00:00 1,1 -8,5 50 27 - - E 0
15.02.2019 00:00:00 2,3 -11,4 44 24 - - E 0
14.02.2019 23:00:00 3,1 -14,7 29 16 - - E 0
14.02.2019 22:00:00 3,2 -15,4 15 8 - - NNO 0
14.02.2019 21:00:00 2,3 -9,6 22 12 - - N 0
14.02.2019 20:00:00 3,0 -10,9 11 6 - - N 0
14.02.2019 19:00:00 3,1 -12,8 34 18 - - NNE 0
14.02.2019 18:00:00 3,8 -13,1 39 21 55 30 NNE 31
14.02.2019 17:00:00 4,6 -14,0 22 12 - - N 60
14.02.2019 16:00:00 5,4 -14,9 22 12 - - N 60
14.02.2019 15:00:00 6,3 -15,0 28 15 - - N 54
14.02.2019 14:00:00 7,0 -11,0 24 13 - - N 60
14.02.2019 13:00:00 7,7 -17,8 13 7 - - NO -
14.02.2019 12:00:00 6,4 -16,8 9 5 27 15 NNO 50
14.02.2019 11:00:00 5,2 -18,7 11 6 - - N 58
14.02.2019 10:00:00 3,3 -17,3 26 14 - - E 42
14.02.2019 09:00:00 2,4 -16,5 37 20 - - E 59
14.02.2019 08:00:00 1,6 -15,5 42 23 - - ESE 15
14.02.2019 07:00:00 0,4 -12,8 37 20 - - E 0
14.02.2019 06:00:00 0,1 -11,7 44 24 - - E 0
14.02.2019 05:00:00 -0,9 -10,7 52 28 - - E 0
14.02.2019 04:00:00 -2,3 -9,3 55 30 - - E 0
14.02.2019 03:00:00 -1,9 -9,0 48 26 73 40 E 0
14.02.2019 02:00:00 -0,7 -9,9 52 28 71 38 E 0
14.02.2019 01:00:00 -2,1 -8,5 55 30 - - N 0
14.02.2019 00:00:00 -3,3 -7,9 55 30 80 43 E 0
13.02.2019 23:00:00 -3,6 -8,0 59 32 79 42 E 0
13.02.2019 22:00:00 -2,8 -8,0 61 33 - - E 0
13.02.2019 21:00:00 -2,7 -8,9 72 39 94 51 E 0
13.02.2019 20:00:00 -2,4 -9,6 80 43 - - E 0
13.02.2019 19:00:00 -2,3 -10,2 72 39 - - E 0
13.02.2019 18:00:00 -2,2 -12,4 74 40 114 62 E 28
13.02.2019 17:00:00 -2,8 -12,2 42 23 74 40 ESE 59
13.02.2019 16:00:00 -2,6 -11,2 4 2 - - N 58
13.02.2019 15:00:00 -2,2 -12,5 4 2 - - N 58
13.02.2019 14:00:00 -2,9 -11,4 4 2 27 15 N 59
13.02.2019 13:00:00 -4,8 -14,5 4 2 - - N 52
13.02.2019 12:00:00 -5,3 -14,0 55 30 85 46 E 58
13.02.2019 11:00:00 -5,3 -14,3 67 36 99 54 E 54
13.02.2019 10:00:00 -5,4 -14,8 54 29 - - E 39
13.02.2019 09:00:00 -5,8 -14,7 67 36 104 56 E 60
13.02.2019 08:00:00 -6,1 -14,2 48 26 93 50 ESE 14
13.02.2019 07:00:00 -6,4 -11,9 26 14 - - ESE 0
13.02.2019 06:00:00 -6,5 -10,8 28 15 49 26 ESE 0
13.02.2019 05:00:00 -5,8 -11,9 35 19 56 31 ESE 0
13.02.2019 04:00:00 -5,9 -13,3 4 2 - - N 0
13.02.2019 03:00:00 -5,7 -14,6 4 2 44 24 N 0
13.02.2019 02:00:00 -5,7 -15,3 4 2 48 26 N 0
13.02.2019 01:00:00 -5,2 -17,2 24 13 - - SE 0
13.02.2019 00:00:00 -5,3 -15,9 4 2 - - N 0
12.02.2019 23:00:00 -4,5 -16,8 21 11 - - SE 0
12.02.2019 22:00:00 -4,2 -16,2 4 2 - - N 0
12.02.2019 21:00:00 -4,2 -14,5 9 5 - - - 0
12.02.2019 20:00:00 -4,1 -16,2 29 16 56 30 NNO 0
12.02.2019 19:00:00 -4,0 -15,9 11 6 - - N 0
12.02.2019 18:00:00 -3,5 -14,5 4 2 - - N 26
12.02.2019 17:00:00 -3,0 -13,2 22 12 - - NNO 56
12.02.2019 16:00:00 -2,8 -14,6 4 2 - - N 56
12.02.2019 15:00:00 -3,1 -12,4 4 2 - - N 55
12.02.2019 14:00:00 -3,5 -12,3 4 2 - - N 59
12.02.2019 13:00:00 -4,3 -13,5 31 17 - - E 57
12.02.2019 12:00:00 -3,8 -14,0 4 2 - - N 47
12.02.2019 11:00:00 -4,6 -15,4 42 23 64 35 E 0
12.02.2019 10:00:00 - - 0 0 - - N 0
12.02.2019 09:00:00 - - 0 0 - - N 0
12.02.2019 08:00:00 - - 0 0 - - N 0
12.02.2019 07:00:00 - - 0 0 - - N 0
12.02.2019 06:00:00 - - 0 0 - - N 0
12.02.2019 05:00:00 - - 0 0 - - N 0
12.02.2019 04:00:00 - - 0 0 - - N 0
12.02.2019 03:00:00 - - 0 0 - - N 0
12.02.2019 02:00:00 - - 0 0 - - N 0
12.02.2019 01:00:00 - - 0 0 - - N 0
12.02.2019 00:00:00 - - 0 0 - - N 0
11.02.2019 23:00:00 - - 0 0 - - N 0
11.02.2019 22:00:00 - - 0 0 - - N 0
11.02.2019 21:00:00 - - 0 0 - - N 0
11.02.2019 20:00:00 - - 0 0 - - N 0
11.02.2019 19:00:00 - - 0 0 - - N 0
11.02.2019 18:00:00 - - 0 0 - - N 0
11.02.2019 17:00:00 - - 0 0 - - N 0
11.02.2019 16:00:00 - - 0 0 - - N 0
11.02.2019 15:00:00 - - 0 0 - - N 0
11.02.2019 14:00:00 - - 0 0 - - N 0
11.02.2019 13:00:00 - - 0 0 - - N 0
11.02.2019 12:00:00 - - 0 0 - - N 0
11.02.2019 11:00:00 - - 0 0 - - N 0
11.02.2019 10:00:00 - - 0 0 - - N 0
11.02.2019 09:00:00 - - 0 0 - - N 0
11.02.2019 08:00:00 - - 0 0 - - N 0
11.02.2019 07:00:00 - - 0 0 - - N 0
11.02.2019 06:00:00 - - 0 0 - - N 0
11.02.2019 05:00:00 - - 0 0 - - N 0
11.02.2019 04:00:00 - - 0 0 - - N 0
11.02.2019 03:00:00 - - 0 0 - - N 0
11.02.2019 02:00:00 - - 0 0 - - N 0
11.02.2019 01:00:00 - - 0 0 - - N 0
11.02.2019 00:00:00 - - 0 0 - - N 0
10.02.2019 23:00:00 - - 0 0 - - N 0
10.02.2019 22:00:00 - - 0 0 - - N 0
10.02.2019 21:00:00 - - 0 0 - - N 0
10.02.2019 20:00:00 - - 0 0 - - N 0
10.02.2019 19:00:00 - - 0 0 - - N 0
10.02.2019 18:00:00 - - 0 0 - - N 0
10.02.2019 17:00:00 - - 0 0 - - N 0
10.02.2019 16:00:00 - - 0 0 - - N 0
10.02.2019 15:00:00 - - 0 0 - - N 0
10.02.2019 14:00:00 - - 0 0 - - N 0
10.02.2019 13:00:00 - - 0 0 - - N 0
10.02.2019 12:00:00 -0,9 -0,9 4 2 - - N 0
10.02.2019 11:00:00 -0,9 -0,9 4 2 - - N 0
10.02.2019 10:00:00 -0,7 -0,7 4 2 - - N 0
10.02.2019 09:00:00 -0,7 -0,7 4 2 - - N 0
10.02.2019 08:00:00 -0,6 -0,6 4 2 30 16 N 0
10.02.2019 07:00:00 -0,4 -0,4 13 7 - - N 0

tt = Temperatura
td = dewpoint
ff = velocità del vento
fx = gusts
dd = direzione del vento
sd = ore di luce

Stazioni seguenti

WeatherPro
AMSI
MeteoEarth